User: anonymous   Login
Location: Bergnershof
(48.9468°N, 10.9431°E)
Time: 11:49:44
(UTC+00:00)
Language:

ERBS - Orbit

View from above orbital plane
View from above orbital plane
View from above satellite
View from above satellite

Ground track
Ground track

The orbit data is extracted from the following two-line orbital elements,

1 15354U 84108B   21131.88492754  .00004267  00000-0  75618-4 0  9994
2 15354  57.0049  86.2848 0007370   2.2865 357.8227 15.52535894 18528
Epoch (UTC): 11 May 2021 21:14:17
Eccentricity: 0.0007370
inclination: 57.0049°
perigee height: 404 km
apogee height: 414 km
right ascension of ascending node: 86.2848°
argument of perigee: 2.2865°
revolutions per day: 15.52535894
mean anomaly at epoch: 357.8227°
orbit number at epoch: 1852

The dashed part of the orbit path shows where the satellite is in the earth's shadow,  

DLR